QPF
0.00 0.00 0.00 0.00 0.00 0.00 0.00 0.00 0.00 0.00 0.00 0.00 0.00 0.00 0.00 0.00 0.00 0.00 0.00 0.00 0.00 0.00 0.00 0.00 0.00 0.00 0.00 0.00 0.00 0.00 0.00 0.00 0.00 0.00 0.00 0.00 0.00 0.00 0.00 0.00 0.00 0.00 0.00 0.00 0.03
0.00 0.00 0.00 0.00 0.00 0.00 0.00 0.00 0.00 0.00 0.00 0.00 0.00 0.00 0.00 0.00 0.00 0.00 0.00 0.00 0.00 0.00 0.00 0.00 0.00 0.00 0.00 0.00 0.00 0.00 0.00 0.00 0.00 0.00 0.00 0.00 0.00 0.00 0.00 0.00 0.00 0.00 0.00 0.00 0.01
0.00 0.00 0.00 0.00 0.00 0.00 0.00 0.00 0.00 0.00 0.00 0.00 0.00 0.00 0.00 0.00 0.00 0.00 0.00 0.00 0.00 0.00 0.00 0.00 0.00 0.00 0.00 0.00 0.00 0.00 0.00 0.00 0.00 0.00 0.00 0.00 0.00 0.00 0.00 0.00 0.00 0.00 0.00 0.00 0.00
0.00 0.00 0.00 0.00 0.00 0.00 0.00 0.00 0.00 0.00 0.00 0.00 0.00 0.00 0.00 0.00 0.00 0.00 0.00 0.00 0.00 0.00 0.00 0.00 0.00 0.00 0.00 0.00 0.00 0.00 0.00 0.00 0.00 0.00 0.00 0.00 0.00 0.00 0.00 0.00 0.00 0.00 0.00 0.00 0.00
0.00 0.00 0.00 0.00 0.00 0.00 0.00 0.00 0.00 0.00 0.00 0.00 0.00 0.00 0.00 0.00 0.00 0.00 0.00 0.00 0.00 0.00 0.00 0.00 0.00 0.00 0.00 0.00 0.00 0.00 0.00 0.00 0.00 0.00 0.00 0.00 0.00 0.00 0.00 0.00 0.00 0.00 0.00 0.00 0.01
0.00 0.00 0.00 0.00 0.00 0.00 0.00 0.00 0.00 0.00 0.00 0.00 0.00 0.00 0.00 0.00 0.00 0.00 0.00 0.00 0.00 0.00 0.00 0.00 0.00 0.00 0.00 0.00 0.00 0.00 0.00 0.00 0.00 0.00 0.00 0.00 0.00 0.00 0.00 0.00 0.00 0.00 0.00 0.00 0.00
0.00 0.00 0.00 0.00 0.00 0.00 0.00 0.00 0.00 0.00 0.00 0.00 0.00 0.00 0.00 0.00 0.00 0.00 0.00 0.00 0.00 0.00 0.00 0.00 0.00 0.00 0.00 0.00 0.00 0.00 0.00 0.00 0.00 0.00 0.00 0.00 0.00 0.00 0.00 0.00 0.00 0.00 0.00 0.00 0.00
0.00 0.00 0.00 0.00 0.00 0.00 0.00 0.00 0.00 0.00 0.00 0.00 0.00 0.00 0.00 0.00 0.00 0.00 0.00 0.00 0.00 0.00 0.00 0.00 0.00 0.00 0.00 0.00 0.00 0.00 0.00 0.00 0.00 0.00 0.00 0.00 0.00 0.00 0.00 0.00 0.00 0.00 0.00 0.00 0.00
0.00 0.00 0.00 0.00 0.00 0.00 0.00 0.00 0.00 0.00 0.00 0.00 0.00 0.00 0.00 0.00 0.00 0.00 0.00 0.00 0.00 0.00 0.00 0.00 0.00 0.00 0.00 0.00 0.00 0.00 0.00 0.01 0.00 0.00 0.00 0.00 0.00 0.00 0.00 0.00 0.00 0.00 0.00 0.00 0.00
0.00 0.00 0.00 0.00 0.00 0.00 0.00 0.00 0.00 0.00 0.00 0.00 0.00 0.00 0.00 0.00 0.00 0.00 0.00 0.00 0.00 0.00 0.00 0.00 0.00 0.00 0.00 0.00 0.00 0.00 0.00 0.00 0.00 0.00 0.00 0.00 0.00 0.00 0.00 0.00 0.00 0.00 0.00 0.00 0.00
0.00 0.00 0.00 0.00 0.00 0.00 0.00 0.00 0.00 0.00 0.00 0.00 0.00 0.00 0.00 0.00 0.00 0.00 0.00 0.00 0.00 0.00 0.00 0.00 0.00 0.00 0.00 0.00 0.00 0.00 0.00 0.00 0.00 0.00 0.00 0.00 0.00 0.00 0.00 0.00 0.00 0.00 0.00 0.00 0.00
0.00 0.00 0.00 0.00 0.00 0.00 0.00 0.00 0.00 0.00 0.00 0.00 0.00 0.00 0.00 0.00 0.00 0.00 0.00 0.00 0.00 0.00 0.00 0.00 0.00 0.00 0.00 0.00 0.00 0.00 0.00 0.00 0.00 0.00 0.00 0.00 0.00 0.00 0.00 0.00 0.00 0.00 0.00 0.00 0.00
0.00 0.00 0.00 0.00 0.00 0.00 0.00 0.00 0.00 0.00 0.00 0.00 0.00 0.00 0.00 0.00 0.00 0.00 0.00 0.00 0.00 0.00 0.00 0.00 0.00 0.00 0.00 0.00 0.00 0.00 0.00 0.00 0.00 0.00 0.00 0.00 0.00 0.00 0.00 0.00 0.00 0.00 0.00 0.00 0.00
0.00 0.00 0.00 0.00 0.00 0.00 0.00 0.00 0.00 0.00 0.00 0.00 0.00 0.00 0.00 0.00 0.00 0.00 0.00 0.00 0.00 0.00 0.00 0.00 0.00 0.00 0.00 0.00 0.00 0.00 0.00 0.00 0.00 0.00 0.00 0.00 0.00 0.00 0.00 0.00 0.00 0.00 0.00 0.00 0.00
0.00 0.00 0.00 0.00 0.00 0.00 0.00 0.00 0.00 0.00 0.00 0.00 0.00 0.00 0.00 0.00 0.00 0.00 0.00 0.00 0.00 0.00 0.00 0.00 0.00 0.00 0.00 0.00 0.00 0.00 0.00 0.00 0.00 0.00 0.00 0.00 0.00 0.00 0.00 0.00 0.00 0.00 0.00 0.00 0.00
0.00 0.00 0.00 0.00 0.00 0.00 0.00 0.00 0.00 0.00 0.00 0.00 0.00 0.00 0.00 0.00 0.00 0.00 0.00 0.00 0.00 0.00 0.00 0.00 0.00 0.00 0.00 0.00 0.00 0.00 0.00 0.00 0.00 0.00 0.00 0.00 0.00 0.00 0.00 0.00 0.00 0.00 0.00 0.00 0.00
0.00 0.00 0.00 0.00 0.00 0.00 0.00 0.00 0.00 0.00 0.00 0.00 0.00 0.00 0.00 0.00 0.00 0.00 0.00 0.00 0.00 0.00 0.00 0.00 0.00 0.00 0.00 0.00 0.00 0.00 0.00 0.00 0.00 0.00 0.00 0.00 0.00 0.00 0.00 0.00 0.00 0.00 0.00 0.00 0.00
0.00 0.00 0.00 0.00 0.00 0.00 0.00 0.00 0.00 0.00 0.00 0.00 0.00 0.00 0.00 0.00 0.00 0.00 0.00 0.00 0.00 0.00 0.00 0.00 0.00 0.00 0.00 0.00 0.00 0.00 0.00 0.00 0.00 0.00 0.00 0.00 0.00 0.00 0.00 0.00 0.00 0.00 0.00 0.00 0.00
0.00 0.00 0.00 0.00 0.00 0.00 0.00 0.00 0.00 0.00 0.00 0.00 0.00 0.00 0.00 0.00 0.00 0.00 0.00 0.00 0.00 0.00 0.00 0.00 0.00 0.00 0.00 0.00 0.00 0.00 0.00 0.00 0.00 0.00 0.00 0.00 0.00 0.00 0.00 0.00 0.00 0.00 0.00 0.00 0.00
0.00 0.00 0.00 0.00 0.00 0.00 0.00 0.00 0.00 0.00 0.00 0.00 0.00 0.00 0.00 0.00 0.00 0.00 0.00 0.00 0.00 0.00 0.00 0.00 0.00 0.00 0.00 0.00 0.00 0.00 0.00 0.00 0.00 0.00 0.00 0.00 0.00 0.00 0.00 0.00 0.00 0.00 0.00 0.00 0.00
0.00 0.00 0.00 0.00 0.00 0.00 0.00 0.00 0.00 0.00 0.00 0.00 0.00 0.00 0.00 0.00 0.00 0.00 0.00 0.00 0.00 0.00 0.00 0.00 0.00 0.00 0.00 0.00 0.00 0.00 0.00 0.00 0.00 0.00 0.00 0.00 0.00 0.00 0.00 0.00 0.00 0.00 0.00 0.00 0.00
0.00 0.00 0.00 0.00 0.00 0.00 0.00 0.00 0.00 0.00 0.00 0.00 0.00 0.00 0.00 0.00 0.00 0.00 0.00 0.00 0.00 0.00 0.00 0.00 0.00 0.00 0.00 0.00 0.00 0.00 0.00 0.00 0.00 0.00 0.00 0.00 0.00 0.00 0.00 0.00 0.00 0.00 0.00 0.00 0.00
0.00 0.00 0.00 0.00 0.00 0.00 0.00 0.00 0.00 0.00 0.00 0.00 0.00 0.00 0.00 0.00 0.00 0.00 0.00 0.00 0.00 0.00 0.00 0.00 0.00 0.00 0.00 0.00 0.00 0.00 0.00 0.00 0.00 0.00 0.00 0.00 0.00 0.00 0.00 0.00 0.00 0.00 0.00 0.00 0.00
0.00 0.00 0.01 0.00 0.00 0.00 0.00 0.00 0.00 0.00 0.00 0.00 0.00 0.00 0.00 0.00 0.00 0.00 0.00 0.00 0.00 0.00 0.00 0.00 0.00 0.00 0.00 0.00 0.00 0.00 0.00 0.00 0.00 0.00 0.00 0.00 0.00 0.00 0.00 0.00 0.00 0.00 0.00 0.00 0.00
0.00 0.00 0.02 0.01 0.00 0.00 0.00 0.00 0.00 0.00 0.00 0.00 0.00 0.00 0.00 0.00 0.00 0.00 0.00 0.00 0.00 0.00 0.00 0.00 0.00 0.00 0.00 0.00 0.00 0.00 0.00 0.00 0.00 0.00 0.00 0.00 0.00 0.00 0.00 0.00 0.00 0.00 0.00 0.00 0.00
0.01 0.00 0.00 0.00 0.00 0.00 0.00 0.00 0.00 0.00 0.00 0.00 0.00 0.00 0.00 0.00 0.00 0.00 0.00 0.00 0.00 0.00 0.00 0.00 0.00 0.00 0.00 0.00 0.00 0.00 0.00 0.00 0.00 0.00 0.00 0.00 0.00 0.00 0.00 0.00 0.00 0.00 0.00 0.00 0.00
0.00 0.00 0.00 0.00 0.00 0.00 0.00 0.00 0.00 0.00 0.00 0.00 0.00 0.00 0.00 0.00 0.00 0.00 0.00 0.00 0.00 0.00 0.00 0.00 0.00 0.00 0.00 0.00 0.00 0.00 0.00 0.00 0.00 0.00 0.00 0.00 0.00 0.00 0.00 0.00 0.00 0.00 0.00 0.00 0.00
MSLP
1018.93 1018.58 1018.19 1017.69 1017.22 1016.79 1016.25 1015.83 1015.44 1014.98 1014.38 1013.81 1013.24 1012.70 1012.01 1011.45 1010.57 1009.81 1007.37 1006.63 1006.20 1006.60 1006.82 1005.47 1005.19 1004.32 1003.46 1001.95 1001.35 1000.76 999.49 1000.24 1000.96 1001.50 1003.39 1004.35 1005.05 1006.30 1007.23 1009.16 1010.13 1010.78 1012.23 1014.31 1015.28
1018.94 1018.54 1018.10 1017.65 1017.14 1016.67 1016.23 1015.73 1015.31 1014.84 1014.31 1013.66 1013.07 1012.58 1011.97 1011.51 1009.58 1007.13 1006.29 1006.15 1006.54 1006.49 1005.73 1004.60 1003.19 1002.79 1001.78 1000.53 1000.05 999.96 999.50 1000.86 1001.54 1002.49 1003.53 1004.41 1004.88 1006.29 1006.84 1008.85 1010.75 1011.90 1013.51 1014.36 1015.00
1019.02 1018.59 1018.12 1017.56 1017.01 1016.48 1016.05 1015.53 1015.08 1014.72 1014.20 1013.60 1012.96 1012.43 1011.99 1011.47 1008.44 1005.06 1005.99 1006.19 1006.34 1006.36 1005.07 1004.05 1003.29 1002.41 1000.49 1000.10 999.89 999.33 1000.07 1001.39 1002.31 1002.99 1003.52 1004.63 1005.44 1005.99 1006.43 1007.77 1010.44 1012.13 1013.68 1014.73 1015.28
1019.38 1018.74 1018.22 1017.70 1017.12 1016.43 1015.79 1015.27 1014.75 1014.41 1014.04 1013.40 1012.83 1012.24 1011.81 1010.20 1006.61 1005.30 1005.85 1006.00 1006.36 1005.92 1005.02 1003.76 1002.79 1001.12 999.93 999.76 1000.14 1000.21 1001.15 1001.96 1002.84 1003.48 1003.76 1004.60 1005.23 1006.13 1006.48 1007.69 1009.83 1012.01 1013.48 1014.64 1015.38
1019.61 1019.07 1018.40 1017.83 1017.25 1016.63 1015.87 1015.13 1014.54 1014.00 1013.72 1013.22 1012.63 1012.25 1011.05 1008.34 1005.25 1005.17 1005.59 1005.90 1005.79 1005.65 1004.47 1003.32 1002.35 1001.02 999.89 1000.17 999.96 1000.72 1001.70 1002.41 1003.19 1003.81 1004.40 1004.82 1005.65 1006.85 1008.00 1009.44 1010.66 1012.21 1013.47 1014.34 1014.90
1019.66 1019.15 1018.58 1017.96 1017.25 1016.58 1015.93 1015.15 1014.36 1013.70 1013.24 1012.93 1012.43 1012.32 1010.33 1006.54 1004.18 1004.46 1004.73 1004.89 1004.67 1004.64 1003.75 1003.11 1002.00 1001.82 1000.73 1000.33 1000.12 1000.90 1001.80 1002.57 1003.33 1004.03 1004.46 1005.06 1006.01 1006.81 1008.76 1010.05 1011.37 1012.46 1013.32 1014.10 1014.50
1019.64 1019.14 1018.57 1017.95 1017.31 1016.47 1015.68 1015.04 1014.23 1013.40 1012.73 1012.45 1012.26 1011.57 1008.55 1005.25 1004.26 1004.28 1004.44 1004.07 1003.92 1003.72 1003.16 1002.43 1002.25 1001.75 1000.80 1000.50 1000.52 1001.16 1001.48 1002.21 1002.91 1003.27 1003.83 1004.17 1004.95 1006.92 1008.74 1009.98 1011.15 1012.35 1013.30 1014.02 1014.44
1019.58 1019.10 1018.53 1017.85 1017.16 1016.39 1015.43 1014.59 1013.93 1013.06 1012.34 1012.00 1012.04 1010.62 1006.78 1004.04 1003.97 1004.13 1004.08 1003.69 1003.79 1003.61 1003.09 1002.61 1002.45 1001.89 1000.65 1000.65 1000.45 1000.08 1000.16 1000.63 1002.22 1002.51 1003.45 1003.47 1004.79 1006.81 1008.36 1009.38 1010.45 1011.48 1012.55 1013.34 1013.98
1019.71 1019.02 1018.41 1017.76 1016.93 1016.07 1015.13 1013.98 1013.29 1012.57 1012.08 1011.79 1011.12 1008.99 1005.28 1004.74 1004.21 1003.70 1003.63 1003.20 1003.16 1003.20 1003.22 1003.19 1002.57 1001.33 1000.69 1000.42 999.98 1000.19 1001.69 1000.98 1001.32 1002.14 1002.44 1002.56 1004.17 1006.04 1007.30 1007.99 1009.22 1010.28 1011.14 1011.84 1012.43
1019.81 1019.15 1018.29 1017.55 1016.79 1015.81 1014.65 1012.95 1012.31 1012.33 1011.72 1010.45 1009.14 1007.57 1004.40 1003.08 1002.63 1002.74 1002.94 1003.05 1002.62 1002.76 1002.91 1002.92 1002.07 1000.74 999.93 998.95 998.63 1001.04 1000.68 999.63 1000.37 1001.59 1002.05 1001.79 1003.42 1005.21 1006.23 1006.71 1007.69 1008.72 1009.73 1010.50 1011.09
1019.78 1019.17 1018.37 1017.40 1016.52 1015.57 1014.21 1010.69 1011.39 1010.42 1008.92 1006.41 1004.61 1003.90 1002.25 1002.18 1002.56 1002.47 1002.29 1002.71 1002.40 1002.28 1001.88 1001.81 1001.05 999.69 999.02 999.47 1000.23 998.81 999.35 999.20 999.89 1001.03 1001.14 1001.01 1002.16 1003.89 1005.06 1005.57 1006.30 1007.21 1008.26 1009.06 1009.79
1019.77 1019.14 1018.33 1017.29 1016.22 1015.13 1014.50 1010.83 1010.43 1010.70 1007.83 1005.16 1004.18 1002.92 1002.07 1002.25 1001.75 1001.64 1001.98 1002.05 1001.76 1001.19 1001.27 1000.67 999.83 999.02 998.51 999.07 999.46 998.72 998.76 998.91 999.92 1000.52 1000.89 1000.75 1001.13 1002.33 1003.81 1004.37 1005.02 1005.90 1006.94 1007.73 1008.54
1019.80 1019.15 1018.34 1017.16 1015.73 1014.36 1012.32 1010.78 1010.80 1010.10 1007.55 1003.65 1002.25 1001.81 1001.66 1002.13 1001.16 1000.55 1001.17 1001.06 1000.83 1000.58 1000.05 999.27 999.13 998.66 998.40 998.46 999.06 998.44 998.17 998.74 999.37 1000.07 1000.25 1000.18 1000.29 1001.07 1002.33 1003.27 1003.78 1004.74 1005.75 1006.65 1007.47
1019.74 1019.23 1018.47 1017.24 1015.49 1013.39 1011.14 1011.22 1010.74 1010.09 1006.51 1001.28 1000.04 999.75 1000.53 1001.06 1000.55 999.93 1000.47 1000.39 999.92 999.57 999.32 998.97 998.61 998.50 998.26 998.58 998.78 997.76 998.27 999.09 999.46 999.55 998.64 999.65 999.68 1000.15 1000.88 1001.89 1002.81 1003.61 1004.50 1005.49 1006.47
1019.74 1019.26 1018.76 1018.20 1016.25 1013.22 1011.74 1011.71 1011.06 1009.76 1004.06 997.32 997.78 998.29 998.85 999.45 998.57 999.50 999.76 999.89 998.85 998.85 998.96 998.14 998.01 997.84 997.98 998.50 998.48 997.99 998.21 999.05 999.38 999.44 998.90 998.63 998.70 998.82 999.88 1000.65 1001.36 1002.19 1003.22 1004.14 1005.43
1019.58 1019.17 1018.83 1016.21 1015.38 1013.52 1012.68 1011.77 1010.69 1007.62 1000.60 997.44 997.33 997.75 997.81 998.51 998.25 998.35 999.05 999.63 999.19 998.76 998.34 997.75 998.11 997.67 998.10 998.33 998.20 998.37 999.07 999.39 999.51 999.10 997.99 997.89 997.70 997.81 998.42 999.30 1000.08 1000.95 1001.83 1003.00 1004.07
1019.25 1018.88 1018.71 1017.45 1014.69 1012.99 1013.15 1011.43 1008.49 1003.09 999.32 996.34 996.37 996.86 996.61 996.93 997.42 997.21 998.02 998.45 997.80 997.87 997.34 997.63 997.09 997.45 998.21 998.00 998.13 998.48 998.77 998.77 998.53 997.96 997.07 997.04 997.42 997.06 997.40 998.18 998.72 999.59 1000.59 1001.67 1002.90
1018.82 1018.24 1016.45 1015.37 1014.47 1013.71 1012.76 1010.54 1004.70 999.41 997.32 995.29 995.30 995.71 995.61 995.69 996.21 996.35 997.19 997.25 997.45 997.07 996.67 996.61 996.70 997.07 997.65 997.49 997.47 998.49 998.50 997.64 997.28 996.62 996.44 997.38 996.89 996.50 996.80 997.29 998.07 998.38 999.43 1000.56 1001.64
1018.45 1016.03 1013.78 1012.89 1013.08 1013.30 1012.19 1007.41 1001.39 998.07 996.81 994.90 994.59 994.40 994.80 994.84 995.24 995.37 995.78 995.84 996.28 996.15 995.64 995.97 996.13 996.88 997.24 997.73 997.49 997.67 997.99 997.60 996.72 996.26 996.16 996.22 996.52 996.47 996.62 997.20 997.67 997.89 998.29 999.38 1000.47
1017.57 1015.16 1012.61 1011.97 1012.23 1012.54 1010.37 1004.83 1001.19 998.61 995.84 995.17 994.00 993.71 993.48 993.60 994.03 994.14 994.79 995.02 995.25 995.62 995.58 994.77 995.28 995.51 996.57 997.30 997.20 996.84 997.81 997.62 996.52 995.78 995.17 994.79 995.48 995.50 996.20 996.48 996.68 997.45 997.82 998.42 999.57
1017.12 1013.33 1010.61 1011.42 1012.02 1010.98 1006.86 1004.22 1002.41 998.88 997.10 995.52 994.31 993.38 992.82 992.61 992.77 992.68 993.17 993.86 994.35 994.95 995.30 994.54 994.62 994.82 995.38 995.77 995.90 996.62 996.26 996.74 996.32 996.13 994.89 994.73 994.26 994.67 995.55 995.79 996.41 996.98 997.45 998.10 998.84
1015.77 1012.53 1010.78 1011.20 1010.77 1008.61 1006.44 1004.74 1003.00 999.94 997.87 996.77 995.73 993.76 992.70 992.26 992.09 992.28 992.32 992.77 993.32 993.82 994.30 994.44 994.42 993.79 994.35 995.43 995.81 995.59 995.99 996.06 995.68 995.92 994.95 994.33 993.13 993.84 994.94 995.74 996.61 996.85 997.46 998.06 998.75
1014.90 1011.68 1010.07 1010.76 1008.82 1006.84 1005.92 1004.56 1002.68 1000.52 998.72 997.57 996.46 994.95 993.35 992.34 992.02 992.04 991.70 992.13 992.42 993.14 993.42 994.46 994.31 994.09 993.90 994.81 995.40 994.91 995.46 995.60 995.76 995.50 994.95 994.47 994.28 994.66 995.03 995.76 996.50 996.65 997.62 998.29 998.97
1015.68 1011.00 1009.41 1009.55 1008.68 1006.48 1004.75 1003.48 1002.39 1000.96 999.53 998.28 996.89 995.66 994.32 993.06 992.34 991.90 991.84 991.83 992.13 992.82 993.64 994.61 994.30 993.61 992.72 993.36 994.30 994.86 994.70 995.16 994.95 994.98 994.53 994.44 993.85 994.35 995.05 995.65 996.28 996.92 997.65 998.46 999.29
1015.39 1012.20 1011.87 1008.82 1007.73 1006.75 1005.14 1003.24 1001.94 1000.78 1000.40 999.39 997.72 995.98 994.74 993.83 993.21 992.25 991.78 991.59 992.01 993.03 993.66 994.12 994.06 994.15 993.62 992.92 993.45 993.95 994.30 994.40 994.30 994.43 994.09 993.81 993.76 994.08 994.85 995.62 995.81 996.72 997.79 998.93 999.83
1015.87 1013.77 1011.98 1009.61 1008.77 1007.95 1006.64 1004.29 1002.31 1001.15 1000.65 999.57 998.43 997.16 996.08 994.57 993.79 993.00 992.28 991.69 991.42 992.88 993.59 994.25 994.38 994.73 994.08 993.20 992.71 993.10 993.50 994.02 993.69 993.80 993.84 993.71 993.46 993.75 994.58 995.30 996.04 996.57 998.02 999.01 1000.01
1015.28 1015.20 1013.93 1010.71 1008.61 1007.95 1006.24 1005.44 1003.78 1002.19 1001.03 1000.00 999.24 998.18 996.85 995.63 994.87 994.25 993.53 992.45 992.02 992.88 993.54 994.15 994.42 994.49 993.98 993.78 993.24 992.52 991.87 992.61 993.23 993.35 993.66 993.37 993.84 993.94 994.34 995.15 995.73 996.29 997.15 998.73 999.73
Thickness
5725 5728 5733 5738 5743 5749 5755 5760 5765 5771 5778 5785 5792 5799 5806 5812 5822 5832 5841 5855 5863 5862 5861 5868 5865 5866 5872 5871 5881 5884 5858 5832 5832 5833 5822 5838 5823 5829 5829 5800 5799 5801 5789 5776 5775
5723 5727 5731 5736 5742 5748 5753 5759 5764 5770 5776 5784 5791 5798 5805 5811 5830 5842 5861 5863 5862 5863 5863 5860 5863 5871 5863 5878 5884 5863 5855 5835 5851 5845 5830 5833 5832 5822 5819 5802 5786 5786 5782 5779 5776
5720 5724 5729 5734 5740 5747 5752 5759 5764 5769 5775 5782 5790 5797 5803 5810 5828 5853 5862 5863 5864 5866 5874 5876 5875 5871 5869 5884 5881 5883 5849 5853 5848 5849 5847 5831 5826 5835 5823 5807 5794 5779 5774 5772 5770
5713 5720 5725 5731 5737 5744 5752 5758 5765 5770 5775 5782 5789 5796 5802 5817 5802 5857 5863 5864 5864 5869 5870 5869 5868 5866 5875 5870 5880 5857 5862 5855 5849 5850 5845 5831 5839 5825 5829 5821 5816 5796 5785 5775 5768
5706 5713 5720 5726 5733 5740 5748 5756 5763 5771 5776 5782 5788 5793 5808 5814 5830 5862 5863 5864 5868 5867 5864 5863 5860 5869 5870 5873 5882 5860 5855 5856 5853 5848 5842 5843 5828 5820 5815 5817 5814 5799 5788 5778 5775
5700 5707 5714 5721 5729 5736 5744 5753 5762 5770 5776 5781 5787 5790 5804 5802 5864 5866 5868 5868 5870 5867 5868 5871 5868 5874 5871 5872 5867 5872 5860 5853 5851 5842 5842 5830 5826 5827 5814 5816 5803 5796 5788 5783 5781
5696 5701 5708 5716 5724 5733 5742 5749 5759 5769 5776 5781 5785 5793 5805 5821 5862 5866 5867 5867 5875 5875 5865 5882 5883 5871 5880 5867 5887 5871 5851 5854 5851 5851 5842 5848 5827 5813 5820 5816 5801 5794 5790 5785 5783
5690 5696 5702 5711 5719 5728 5739 5748 5757 5767 5775 5780 5782 5795 5804 5854 5861 5861 5866 5866 5875 5880 5880 5888 5888 5875 5877 5887 5880 5872 5869 5840 5853 5857 5852 5849 5810 5823 5827 5817 5806 5802 5796 5791 5788
5684 5690 5697 5705 5715 5725 5736 5748 5757 5765 5771 5777 5785 5796 5805 5849 5840 5859 5866 5857 5868 5874 5879 5881 5878 5870 5876 5858 5856 5859 5800 5830 5845 5863 5856 5854 5822 5831 5836 5829 5816 5813 5809 5806 5803
5676 5682 5691 5699 5709 5720 5734 5751 5757 5761 5769 5781 5793 5788 5822 5827 5849 5859 5868 5865 5858 5860 5856 5856 5859 5855 5867 5867 5841 5808 5831 5866 5848 5857 5856 5857 5837 5836 5839 5838 5829 5825 5820 5816 5813
5667 5675 5683 5694 5703 5715 5729 5762 5759 5763 5777 5792 5806 5808 5831 5846 5856 5849 5864 5854 5857 5849 5831 5852 5838 5838 5862 5867 5861 5885 5863 5863 5870 5868 5859 5864 5851 5842 5844 5845 5838 5834 5830 5826 5823
5657 5665 5675 5687 5699 5710 5718 5745 5753 5749 5758 5799 5805 5818 5836 5840 5825 5842 5860 5833 5834 5825 5844 5842 5831 5869 5888 5878 5868 5876 5868 5866 5867 5872 5862 5863 5858 5862 5852 5850 5850 5845 5838 5836 5835
5643 5653 5664 5678 5693 5709 5725 5738 5744 5752 5752 5789 5812 5814 5823 5828 5822 5835 5849 5844 5833 5829 5839 5837 5853 5880 5879 5873 5859 5874 5872 5865 5858 5867 5874 5867 5856 5860 5864 5863 5864 5860 5855 5849 5844
5627 5638 5650 5665 5685 5706 5720 5729 5736 5745 5739 5788 5805 5820 5824 5827 5814 5854 5857 5847 5840 5831 5845 5848 5873 5866 5866 5858 5868 5863 5887 5871 5863 5855 5850 5875 5821 5857 5867 5860 5862 5862 5860 5856 5853
5609 5620 5631 5643 5664 5689 5711 5715 5724 5731 5717 5825 5817 5847 5835 5818 5841 5835 5862 5845 5833 5838 5844 5841 5855 5860 5855 5857 5878 5871 5890 5872 5867 5855 5862 5866 5851 5864 5876 5857 5863 5870 5869 5869 5864
5588 5601 5612 5639 5653 5675 5690 5703 5711 5704 5722 5788 5809 5808 5811 5819 5827 5842 5839 5850 5856 5840 5850 5856 5876 5874 5864 5875 5883 5888 5867 5864 5864 5862 5843 5867 5866 5863 5869 5870 5875 5882 5882 5879 5876
5565 5579 5593 5608 5637 5665 5672 5683 5686 5707 5782 5789 5793 5806 5811 5811 5816 5828 5819 5813 5815 5802 5813 5838 5853 5871 5870 5857 5876 5869 5852 5823 5821 5832 5840 5887 5865 5872 5896 5897 5896 5891 5891 5891 5888
5539 5559 5584 5604 5620 5638 5651 5660 5683 5755 5773 5812 5807 5806 5798 5818 5816 5823 5814 5808 5830 5835 5828 5814 5806 5844 5863 5857 5857 5847 5852 5838 5807 5831 5854 5876 5850 5879 5914 5917 5912 5914 5909 5903 5896
5511 5546 5577 5599 5608 5619 5627 5654 5712 5758 5782 5793 5801 5793 5794 5812 5816 5816 5815 5820 5832 5844 5824 5818 5821 5861 5862 5865 5868 5849 5834 5879 5864 5879 5858 5868 5878 5903 5911 5904 5907 5909 5914 5907 5904
5487 5519 5556 5578 5592 5597 5616 5664 5715 5755 5785 5790 5775 5797 5789 5803 5804 5809 5809 5832 5832 5848 5862 5855 5822 5861 5859 5866 5868 5864 5873 5838 5861 5830 5834 5870 5862 5867 5883 5894 5908 5904 5909 5914 5912
5465 5504 5539 5556 5568 5579 5624 5662 5689 5744 5763 5766 5779 5790 5802 5805 5813 5816 5819 5836 5846 5844 5855 5861 5849 5847 5860 5841 5841 5847 5852 5859 5874 5867 5851 5842 5866 5912 5897 5909 5902 5906 5913 5914 5916
5459 5487 5514 5531 5544 5582 5607 5642 5671 5707 5737 5748 5764 5786 5801 5812 5809 5811 5813 5831 5857 5856 5830 5854 5846 5837 5841 5863 5873 5872 5857 5864 5846 5839 5871 5876 5883 5929 5917 5913 5907 5908 5912 5917 5918
5453 5481 5504 5512 5538 5576 5602 5622 5654 5682 5707 5727 5741 5772 5795 5801 5795 5810 5825 5849 5856 5847 5838 5847 5830 5816 5834 5848 5859 5853 5863 5872 5874 5878 5858 5853 5863 5919 5916 5909 5908 5909 5909 5912 5912
5444 5486 5504 5512 5535 5558 5588 5608 5632 5670 5686 5714 5735 5762 5771 5781 5801 5800 5809 5836 5849 5847 5846 5845 5834 5829 5829 5837 5853 5834 5856 5865 5871 5850 5861 5867 5884 5895 5899 5898 5901 5905 5906 5906 5904
5446 5473 5475 5505 5531 5545 5568 5594 5622 5644 5664 5690 5711 5739 5754 5758 5773 5787 5810 5825 5835 5830 5834 5834 5809 5830 5846 5870 5862 5853 5851 5859 5857 5869 5858 5880 5882 5896 5899 5896 5907 5905 5901 5894 5891
5434 5453 5474 5496 5510 5517 5530 5570 5600 5632 5646 5670 5691 5720 5740 5750 5770 5772 5797 5811 5816 5820 5817 5828 5802 5819 5822 5854 5867 5849 5857 5856 5868 5874 5876 5884 5884 5918 5912 5911 5901 5900 5890 5886 5884
5442 5442 5454 5486 5513 5518 5544 5559 5584 5612 5642 5668 5686 5702 5724 5751 5763 5773 5791 5812 5822 5805 5804 5808 5807 5803 5795 5834 5843 5826 5858 5859 5863 5877 5874 5860 5884 5909 5900 5894 5896 5899 5895 5886 5885